Showing default

BEIDOU 1D, 30323

Orbit data source: Space-Track

BEIDOU 1D, 30323 is a payload satellite owned by CNSA (CN) in GEO that was launched on Fri, 02 Feb 2007 UTC via a CHANG ZHENG 3A launch vehicle from the Xichang Space Center, China (XSC). Payload-class satellites include a variety of spacecraft equipped with specific instruments for various scientific and technological missions. These include communications satellites like Starlink; space stations such as the ISS; scientific satellites like the Hubble; Earth observation satellites from companies like Planet Labs, Umbra, and HawkEye 360; GPS; miniature CubeSats for education and research; and military/defense satellites.

Loading next visibility...
Identifier
30323, 2007-003A
Orbit
GEO
Country
Flag of CNCN / PRC
Related business
Manufacturer
CAST
Mission
Non-operational Defense Navigation
Bus & Motor
DFH-3, FY-25
Mass
2,299 kg wet, 1,300 kg dry
Launch date (UTC)
2007-02-02 (19 years ago)
Launch vehicle
CHANG ZHENG 3A
Launch site
Xichang Space Center, China (XSC)
Object type
Payload
Rocket body
Debris
Shape & HBR
Box + 2 Pan, 9.0 m
Radar Cross Section
13.998 m², Large (>1 m²)

Expand to show TLE details & history
Last TLE update: 2 days ago

TLE from 2 days ago
0 BEIDOU 1D
1 30323U 07003A   26171.36349491 -.00000168  00000-0  00000+0 0  9992
2 30323   9.8996  56.9234 0053440 275.7804   0.1577  0.99155465 70733
Epoch: 2026-06-20T08:43Z
TLE epoch observation values (Epoch: 2026-06-20T08:43:25.960Z)
Latitude
-9.86843°
Longitude
-66.46355°
Altitude
35,877.399 km
Speed
3.08 km/s
True Right ascension
22h 11m 53s
True Declination
-9° 51' 31"
Sunlit
Object was in daylight at epoch
Visualization orbit readout
Latitude
Unknown
Longitude
Unknown
Altitude
Unknown
Speed
Unknown
Apparent Right ascension
Unknown
Apparent Declination
Unknown
Sunlit
N/A
Visualization observer readout
Local Sidereal Time
04:00:16
Azimuth
Unknown
Elevation
Unknown
Doppler factor
Unknown
Orbital elements
Apogee altitude
36,330.511 km
Perigee altitude
35,876.467 km
Semi-major axis
42,481.626 km
Eccentricity
0.00534
Inclination
9.8996°
RAAN
56.9234°
Arg. of periapsis
275.7804°
True anomaly
0.1594°
Mean anomaly
0.1577°
Eccentric anomaly
0.15855°
Mean motion
0.24788 °/min
Orbital period
1,452.32 mins
BSTAR
0
Loading maneuver chart data...
Computing Atmospheric mass density...
Loading historical data...
Loading historical data...
Loading historical data...
Loading historical data...
Loading historical data...
Loading historical data...
Loading historical data...

Documentation

Showing up to 5 results
|